When you browse on this site, cookies collect data to enhance your experience and personalize the content and advertising you see.
Visit our Privacy Policy to learn more. By continuing to use the site, you agree to this use of cookies and data.
  • In Hungary
  • List of Countries
  • For 7 days
  • Water Temperature
  • Satellite Maps
  • Weather Map
  • News
  • Weather Widgets
  • user-avatar
    Login

    Hourly Weather Neunkirchen

    Today, 23 March, Saturday

    Time Temperature Precipitation Wind Pressure Humidity
    00:00 +9°C° 0 mm 1 mps 738 mmHg 75%
    01:00 +9°C° 0 mm 1 mps 738 mmHg 77%
    02:00 +8°C° 0 mm 1 mps 738 mmHg 78%
    03:00 +8°C° 0 mm 1 mps 738 mmHg 79%
    04:00 +8°C° 0 mm 1 mps 738 mmHg 80%
    05:00 +8°C° 0 mm 1 mps 738 mmHg 79%
    06:00 +9°C° 0 mm 1 mps 738 mmHg 78%
    07:00 +9°C° 0 mm 1 mps 738 mmHg 78%
    08:00 +12°C° 0 mm 1 mps 738 mmHg 70%
    09:00 +14°C° 0 mm 1 mps 738 mmHg 62%
    10:00 +16°C° 0 mm 1 mps 738 mmHg 54%
    11:00 +18°C° 0 mm 1 mps 738 mmHg 51%
    12:00 +19°C° 0 mm 1 mps 737 mmHg 48%
    13:00 +20°C° 0 mm 1 mps 737 mmHg 45%
    14:00 +20°C° 0 mm 1 mps 737 mmHg 46%
    15:00 +20°C° 0 mm 1 mps 736 mmHg 48%
    16:00 +19°C° 0 mm 1 mps 736 mmHg 49%
    17:00 +16°C° 0 mm 1 mps 736 mmHg 57%
    18:00 +14°C° 0 mm 1 mps 736 mmHg 65%
    19:00 +11°C° 0 mm 0 mps 736 mmHg 73%
    20:00 +12°C° 0 mm 1 mps 736 mmHg 74%
    21:00 +12°C° 0 mm 1 mps 736 mmHg 75%
    22:00 +11°C° 0 mm 1 mps 736 mmHg 77%
    23:00 +11°C° 0 mm 1 mps 736 mmHg 77%

    Tomorrow, 24 March, Sunday

    Time Temperature Precipitation Wind Pressure Humidity
    00:00 +11°C° 0 mm 1 mps 736 mmHg 78%
    01:00 +10°C° 0 mm 1 mps 736 mmHg 79%
    02:00 +10°C° 0 mm 1 mps 736 mmHg 79%
    03:00 +10°C° 0 mm 1 mps 736 mmHg 79%
    04:00 +10°C° 0 mm 1 mps 735 mmHg 78%
    05:00 +10°C° 0 mm 1 mps 735 mmHg 77%
    06:00 +10°C° 0 mm 1 mps 735 mmHg 75%
    07:00 +11°C° 0 mm 1 mps 735 mmHg 74%
    08:00 +13°C° 0 mm 1 mps 735 mmHg 67%
    09:00 +15°C° 0 mm 1 mps 735 mmHg 60%
    10:00 +18°C° 0 mm 1 mps 735 mmHg 53%
    11:00 +19°C° 0 mm 1 mps 734 mmHg 51%
    12:00 +20°C° 0 mm 1 mps 734 mmHg 49%
    13:00 +20°C° 0 mm 1 mps 733 mmHg 47%
    14:00 +20°C° 0 mm 1 mps 733 mmHg 49%
    15:00 +20°C° 0 mm 1 mps 732 mmHg 51%
    16:00 +19°C° 0 mm 1 mps 731 mmHg 52%
    17:00 +18°C° 0 mm 1 mps 731 mmHg 58%
    18:00 +15°C° 0 mm 1 mps 731 mmHg 64%
    19:00 +12°C° 0 mm 0 mps 731 mmHg 70%
    20:00 +13°C° 0 mm 1 mps 731 mmHg 72%
    21:00 +13°C° 0 mm 1 mps 731 mmHg 73%
    22:00 +12°C° 0 mm 2 mps 731 mmHg 75%
    23:00 +12°C° 0 mm 2 mps 731 mmHg 77%

    Day after tomorrow, 25 March, Monday

    Time Temperature Precipitation Wind Pressure Humidity
    00:00 +10°C° 0 mm 2 mps 731 mmHg 79%
    01:00 +10°C° 0 mm 2 mps 731 mmHg 81%
    02:00 +9°C° 0 mm 2 mps 730 mmHg 83%
    03:00 +9°C° 0 mm 2 mps 730 mmHg 86%
    04:00 +9°C° 0 mm 2 mps 730 mmHg 88%
    05:00 +9°C° 0 mm 2 mps 730 mmHg 86%
    06:00 +9°C° 0 mm 2 mps 730 mmHg 84%
    07:00 +9°C° 0 mm 3 mps 730 mmHg 82%
    08:00 +10°C° 0 mm 3 mps 730 mmHg 75%
    09:00 +11°C° 0 mm 4 mps 730 mmHg 69%
    10:00 +12°C° 0 mm 5 mps 730 mmHg 62%
    11:00 +12°C° 0 mm 5 mps 730 mmHg 59%
    12:00 +11°C° 0 mm 6 mps 729 mmHg 56%
    13:00 +11°C° 0 mm 6 mps 729 mmHg 53%
    14:00 +11°C° 0 mm 7 mps 729 mmHg 50%
    15:00 +10°C° 0 mm 7 mps 729 mmHg 48%
    16:00 +9°C° 0 mm 7 mps 729 mmHg 45%
    17:00 +8°C° 0 mm 7 mps 729 mmHg 51%
    18:00 +5°C° 0 mm 7 mps 730 mmHg 57%
    19:00 +4°C° 0 mm 7 mps 730 mmHg 62%
    20:00 +3°C° 0 mm 7 mps 731 mmHg 61%
    21:00 +3°C° 0 mm 7 mps 732 mmHg 60%
    22:00 +2°C° 0 mm 7 mps 732 mmHg 60%
    23:00 +2°C° 0 mm 6 mps 733 mmHg 62%

    26 March, Tuesday

    Time Temperature Precipitation Wind Pressure Humidity
    00:00 +2°C° 0 mm 6 mps 733 mmHg 65%
    01:00 +1°C° 0 mm 5 mps 733 mmHg 67%
    02:00 +1°C° 0.1 mm 5 mps 733 mmHg 69%
    03:00 +1°C° 0.1 mm 5 mps 734 mmHg 70%
    04:00 0°C° 0.1 mm 5 mps 734 mmHg 71%
    05:00 0°C° 0.2 mm 5 mps 735 mmHg 73%
    06:00 +1°C° 0.2 mm 5 mps 735 mmHg 75%
    07:00 +1°C° 0.2 mm 5 mps 736 mmHg 77%
    08:00 +1°C° 0 mm 6 mps 737 mmHg 70%
    09:00 +2°C° 0 mm 6 mps 737 mmHg 64%
    10:00 +3°C° 0 mm 7 mps 738 mmHg 57%
    11:00 +3°C° 0 mm 6 mps 738 mmHg 57%
    12:00 +3°C° 0 mm 6 mps 737 mmHg 58%
    13:00 +4°C° 0 mm 6 mps 737 mmHg 58%
    14:00 +4°C° 0 mm 6 mps 737 mmHg 56%
    15:00 +4°C° 0 mm 6 mps 737 mmHg 55%
    16:00 +5°C° 0 mm 6 mps 737 mmHg 53%
    17:00 +3°C° 0 mm 5 mps 737 mmHg 59%
    18:00 +3°C° 0 mm 4 mps 738 mmHg 64%
    19:00 +2°C° 0 mm 3 mps 738 mmHg 69%
    20:00 +2°C° 0 mm 3 mps 738 mmHg 71%
    21:00 +2°C° 0 mm 3 mps 738 mmHg 73%
    22:00 +1°C° 0 mm 3 mps 739 mmHg 75%
    23:00 +1°C° 0 mm 3 mps 739 mmHg 75%

    27 March, Wednesday

    Time Temperature Precipitation Wind Pressure Humidity
    00:00 +1°C° 0 mm 3 mps 739 mmHg 76%
    01:00 +1°C° 0 mm 3 mps 739 mmHg 77%
    02:00 +2°C° 0 mm 2 mps 738 mmHg 77%
    03:00 +2°C° 0 mm 2 mps 738 mmHg 77%
    04:00 +3°C° 0 mm 2 mps 738 mmHg 77%
    05:00 +3°C° 0 mm 2 mps 738 mmHg 76%
    06:00 +2°C° 0 mm 3 mps 738 mmHg 75%
    07:00 +2°C° 0 mm 3 mps 738 mmHg 74%
    08:00 +3°C° 0 mm 3 mps 738 mmHg 70%
    09:00 +4°C° 0 mm 4 mps 738 mmHg 65%
    10:00 +5°C° 0 mm 4 mps 738 mmHg 61%
    11:00 +6°C° 0 mm 4 mps 738 mmHg 59%
    12:00 +6°C° 0 mm 4 mps 738 mmHg 58%
    13:00 +7°C° 0 mm 4 mps 738 mmHg 56%
    14:00 +7°C° 0 mm 4 mps 738 mmHg 57%
    15:00 +7°C° 0 mm 4 mps 738 mmHg 57%
    16:00 +7°C° 0 mm 4 mps 737 mmHg 58%
    17:00 +6°C° 0 mm 4 mps 738 mmHg 64%
    18:00 +5°C° 0 mm 3 mps 738 mmHg 71%
    19:00 +5°C° 0 mm 2 mps 738 mmHg 78%
    20:00 +5°C° 0.1 mm 2 mps 738 mmHg 79%
    21:00 +5°C° 0.1 mm 2 mps 738 mmHg 81%
    22:00 +4°C° 0.1 mm 2 mps 739 mmHg 83%
    23:00 +4°C° 0.1 mm 2 mps 739 mmHg 84%

    28 March, Thursday

    Time Temperature Precipitation Wind Pressure Humidity
    00:00 +5°C° 0.1 mm 1 mps 739 mmHg 85%
    01:00 +5°C° 0.1 mm 1 mps 739 mmHg 86%
    02:00 +5°C° 0.1 mm 1 mps 739 mmHg 87%
    03:00 +4°C° 0.1 mm 1 mps 739 mmHg 88%
    04:00 +4°C° 0.1 mm 1 mps 739 mmHg 89%
    05:00 +4°C° 0 mm 1 mps 739 mmHg 88%
    06:00 +5°C° 0 mm 1 mps 740 mmHg 86%
    07:00 +5°C° 0 mm 1 mps 740 mmHg 85%
    08:00 +7°C° 0 mm 1 mps 740 mmHg 78%
    09:00 +8°C° 0 mm 1 mps 741 mmHg 71%
    10:00 +9°C° 0 mm 2 mps 741 mmHg 64%
    11:00 +9°C° 0.1 mm 2 mps 741 mmHg 61%
    12:00 +10°C° 0.1 mm 2 mps 740 mmHg 59%
    13:00 +10°C° 0.1 mm 2 mps 740 mmHg 56%
    14:00 +10°C° 0 mm 2 mps 740 mmHg 56%
    15:00 +10°C° 0 mm 2 mps 740 mmHg 56%
    16:00 +10°C° 0 mm 2 mps 740 mmHg 56%
    17:00 +10°C° 0 mm 1 mps 740 mmHg 62%
    18:00 +8°C° 0 mm 1 mps 740 mmHg 67%
    19:00 +7°C° 0 mm 1 mps 740 mmHg 72%
    20:00 +6°C° 0 mm 1 mps 741 mmHg 73%
    21:00 +6°C° 0 mm 1 mps 741 mmHg 74%
    22:00 +5°C° 0 mm 1 mps 741 mmHg 75%
    23:00 +5°C° 0 mm 1 mps 741 mmHg 75%
    Show more